This is the latest recevied weather packets stored in our database for station/object EW1958. If no packets are shown the sender has not sent any weather packets the latest 10 day(s).
| Time | Temp. | Humidity | Pressure | Rain* | Wind** | Luminosity | Snow |
|---|---|---|---|---|---|---|---|
| 1778191684 | 15.56° C | 70% | 1021.2 hPa | 0 mm | - | - | - |
| 1778191384 | 16.11° C | 71% | 1021.3 hPa | 0 mm | - | - | - |
| 1778191084 | 16.11° C | 70% | 1021.3 hPa | 0 mm | - | - | - |
| 1778190785 | 16.11° C | 69% | 1021.4 hPa | 0 mm | - | - | - |
| 1778190483 | 16.67° C | 67% | 1021.4 hPa | 0 mm | - | - | - |
| 1778190185 | 16.67° C | 65% | 1021.4 hPa | 0 mm | - | - | - |
| 1778189882 | 16.67° C | 67% | 1021.5 hPa | 0 mm | - | - | - |
| 1778189710 | 16.67° C | 69% | 1021.6 hPa | 0 mm | - | - | - |
| 1778189408 | 16.67° C | 70% | 1021.7 hPa | 0 mm | - | - | - |
| 1778188981 | 16.11° C | 72% | 1021.7 hPa | 0 mm | - | - | - |
| 1778188681 | 16.11° C | 72% | 1021.8 hPa | 0 mm | - | - | - |
| 1778188380 | 15.56° C | 71% | 1021.9 hPa | 0 mm | - | - | - |
| 1778188079 | 15.56° C | 72% | 1021.9 hPa | 0 mm | - | - | - |
| 1778187907 | 15.56° C | 72% | 1022 hPa | 0 mm | - | - | - |
| 1778187475 | 15.56° C | 72% | 1022 hPa | 0 mm | - | - | - |
| 1778187172 | 15.56° C | 73% | 1022 hPa | 0 mm | - | - | - |
| 1778186870 | 15.56° C | 73% | 1022 hPa | 0 mm | - | - | - |
| 1778186570 | 15° C | 75% | 1022.1 hPa | 0 mm | - | - | - |
| 1778186269 | 15° C | 75% | 1022.2 hPa | 0 mm | - | - | - |
| 1778185968 | 15° C | 76% | 1022.2 hPa | 0 mm | - | - | - |
| 1778185664 | 15° C | 75% | 1022.2 hPa | 0 mm | - | - | - |
| 1778185513 | 14.44° C | 78% | 1022.3 hPa | 0 mm | - | - | - |
| 1778185062 | 14.44° C | 77% | 1022.3 hPa | 0 mm | - | - | - |
| 1778184761 | 14.44° C | 78% | 1022.4 hPa | 0 mm | - | - | - |
| 1778184460 | 13.89° C | 78% | 1022.4 hPa | 0 mm | - | - | - |
* Rain latest hour (hover to see other rain measurements)
** Current wind speed in m/s (hover to see current wind gust speed)